| time (UTC) | temp F | wind direction | speed MPH | gust MPH | rain 1hr in | rain 24hr in | rain mn in | humidity % | barometer mb |
| 20260503210131 | 58 | 167 | 2.0 | 7.0 | 0.00 | 0.00 | 0.00 | 71 | 1020.7 |
| 20260503205629 | 58 | 127 | 2.0 | 7.0 | 0.00 | 0.00 | 0.00 | 72 | 1020.7 |
| 20260503205128 | 58 | 169 | 2.0 | 5.0 | 0.00 | 0.00 | 0.00 | 72 | 1020.7 |
| 20260503204625 | 58 | 156 | 2.0 | 5.0 | 0.00 | 0.00 | 0.00 | 73 | 1020.7 |
| 20260503204134 | 58 | 132 | 3.0 | 6.0 | 0.00 | 0.00 | 0.00 | 73 | 1020.7 |
| 20260503203628 | 58 | 150 | 4.0 | 6.0 | 0.00 | 0.00 | 0.00 | 73 | 1020.7 |
| 20260503203125 | 58 | 144 | 4.0 | 7.0 | 0.00 | 0.00 | 0.00 | 74 | 1020.7 |
| 20260503202628 | 58 | 130 | 3.0 | 6.0 | 0.00 | 0.00 | 0.00 | 74 | 1020.7 |
| 20260503202125 | 59 | 123 | 5.0 | 7.0 | 0.00 | 0.00 | 0.00 | 73 | 1020.7 |
| 20260503201625 | 59 | 163 | 3.0 | 6.0 | 0.00 | 0.00 | 0.00 | 73 | 1020.7 |
| 20260503201129 | 59 | 148 | 4.0 | 7.0 | 0.00 | 0.00 | 0.00 | 73 | 1020.6 |
| 20260503200631 | 59 | 178 | 2.0 | 5.0 | 0.00 | 0.00 | 0.00 | 73 | 1020.6 |
| 20260503200125 | 59 | 173 | 3.0 | 6.0 | 0.00 | 0.00 | 0.00 | 73 | 1020.6 |
| 20260503195628 | 59 | 130 | 2.0 | 5.0 | 0.00 | 0.00 | 0.00 | 73 | 1020.6 |
| 20260503195125 | 59 | 145 | 3.0 | 7.0 | 0.00 | 0.00 | 0.00 | 73 | 1020.6 |
| 20260503194631 | 60 | 119 | 3.0 | 8.0 | 0.00 | 0.00 | 0.00 | 73 | 1020.6 |
| 20260503194125 | 60 | 150 | 1.0 | 8.0 | 0.00 | 0.00 | 0.00 | 73 | 1020.6 |
| 20260503193625 | 60 | 82 | 1.0 | 6.0 | 0.00 | 0.00 | 0.00 | 74 | 1020.6 |
| 20260503193128 | 60 | 138 | 0.0 | 6.0 | 0.00 | 0.00 | 0.00 | 74 | 1020.6 |
| 20260503192629 | 60 | 107 | 2.0 | 5.0 | 0.00 | 0.00 | 0.00 | 74 | 1020.5 |
| 20260503192131 | 60 | 156 | 2.0 | 8.0 | 0.00 | 0.00 | 0.00 | 74 | 1020.5 |
| 20260503191625 | 60 | 157 | 3.0 | 7.0 | 0.00 | 0.00 | 0.00 | 76 | 1020.5 |
| 20260503191125 | 60 | 124 | 0.0 | 6.0 | 0.00 | 0.00 | 0.00 | 76 | 1020.5 |
| 20260503190625 | 61 | 127 | 5.0 | 7.0 | 0.00 | 0.00 | 0.00 | 77 | 1020.5 |
| 20260503190131 | 61 | 167 | 2.0 | 6.0 | 0.00 | 0.00 | 0.00 | 77 | 1020.5 |
| 20260503185628 | 62 | 159 | 1.0 | 5.0 | 0.00 | 0.00 | 0.00 | 77 | 1020.4 |
| 20260503185128 | 62 | 175 | 0.0 | 3.0 | 0.00 | 0.00 | 0.00 | 77 | 1020.3 |
| 20260503184625 | 62 | 138 | 0.0 | 4.0 | 0.00 | 0.00 | 0.00 | 76 | 1020.2 |
| 20260503184125 | 63 | 146 | 4.0 | 5.0 | 0.00 | 0.00 | 0.00 | 75 | 1020.1 |
| 20260503183625 | 64 | 179 | 2.0 | 3.0 | 0.00 | 0.00 | 0.00 | 74 | 1020.1 |
| 20260503183128 | 64 | 147 | 0.0 | 0.0 | 0.00 | 0.00 | 0.00 | 74 | 1020.0 |
| 20260503182631 | 64 | 192 | 0.0 | 0.0 | 0.00 | 0.00 | 0.00 | 74 | 1020.0 |
| 20260503182128 | 64 | 192 | 0.0 | 2.0 | 0.00 | 0.00 | 0.00 | 73 | 1019.9 |
| 20260503181626 | 64 | 302 | 0.0 | 2.0 | 0.00 | 0.00 | 0.00 | 73 | 1019.9 |
| 20260503181128 | 64 | 302 | 0.0 | 0.0 | 0.00 | 0.00 | 0.00 | 72 | 1019.9 |
| 20260503180628 | 64 | 316 | 0.0 | 2.0 | 0.00 | 0.00 | 0.00 | 72 | 1019.8 |
| 20260503180125 | 64 | 316 | 0.0 | 3.0 | 0.00 | 0.00 | 0.00 | 71 | 1019.8 |
| 20260503175631 | 64 | 316 | 0.0 | 3.0 | 0.00 | 0.00 | 0.00 | 70 | 1019.7 |
| 20260503175128 | 64 | 325 | 1.0 | 2.0 | 0.00 | 0.00 | 0.00 | 70 | 1019.6 |
| 20260503174625 | 65 | 333 | 0.0 | 3.0 | 0.00 | 0.00 | 0.00 | 70 | 1019.6 |
| 20260503174128 | 65 | 341 | 3.0 | 4.0 | 0.00 | 0.00 | 0.00 | 70 | 1019.6 |
| 20260503173631 | 65 | 279 | 2.0 | 4.0 | 0.00 | 0.00 | 0.00 | 69 | 1019.7 |
| 20260503173128 | 65 | 288 | 0.0 | 5.0 | 0.00 | 0.00 | 0.00 | 69 | 1019.7 |
| 20260503172631 | 66 | 294 | 4.0 | 4.0 | 0.00 | 0.00 | 0.00 | 68 | 1019.7 |
| 20260503172128 | 66 | 263 | 2.0 | 5.0 | 0.00 | 0.00 | 0.00 | 68 | 1019.7 |
| 20260503171625 | 67 | 300 | 3.0 | 5.0 | 0.00 | 0.00 | 0.00 | 67 | 1019.6 |
| 20260503171128 | 67 | 296 | 3.0 | 5.0 | 0.00 | 0.00 | 0.00 | 67 | 1019.6 |
| 20260503170634 | 67 | 284 | 4.0 | 6.0 | 0.00 | 0.00 | 0.00 | 67 | 1019.6 |
| 20260503170125 | 67 | 234 | 1.0 | 5.0 | 0.00 | 0.00 | 0.00 | 67 | 1019.5 |
| 20260503160125 | 68 | 293 | 2.0 | 8.0 | 0.00 | 0.00 | 0.00 | 66 | 1019.7 |
| 20260503150625 | 69 | 255 | 5.0 | 6.0 | 0.00 | 0.00 | 0.00 | 63 | 1019.9 |
| 20260503150125 | 69 | 251 | 1.0 | 8.0 | 0.00 | 0.00 | 0.00 | 63 | 1019.9 |
| 20260503140128 | 68 | 231 | 0.0 | 10.0 | 0.00 | 0.00 | 0.00 | 64 | 1020.3 |
| 20260503131125 | 69 | 279 | 7.0 | 14.0 | 0.00 | 0.00 | 0.00 | 60 | 1020.5 |
| 20260503130635 | 69 | 271 | 7.0 | 12.0 | 0.00 | 0.00 | 0.00 | 62 | 1020.6 |
| 20260503130132 | 68 | 30 | 2.0 | 9.0 | 0.00 | 0.00 | 0.00 | 61 | 1020.5 |
| 20260503120129 | 68 | 260 | 10.0 | 14.0 | 0.00 | 0.00 | 0.00 | 61 | 1021.0 |
| 20260503110626 | 68 | 284 | 5.0 | 10.0 | 0.00 | 0.00 | 0.00 | 61 | 1021.2 |
| 20260503110126 | 68 | 266 | 4.0 | 10.0 | 0.00 | 0.00 | 0.00 | 61 | 1021.3 |
| 20260503100126 | 67 | 273 | 10.0 | 17.0 | 0.00 | 0.00 | 0.00 | 61 | 1021.7 |
| 20260503090129 | 67 | 292 | 6.0 | 14.0 | 0.00 | 0.00 | 0.00 | 57 | 1021.8 |
| 20260503081626 | 67 | 269 | 5.0 | 9.0 | 0.00 | 0.00 | 0.00 | 55 | 1021.6 |
| 20260503081129 | 66 | 263 | 0.0 | 8.0 | 0.00 | 0.00 | 0.00 | 56 | 1021.6 |
| 20260503080629 | 66 | 277 | 6.0 | 10.0 | 0.00 | 0.00 | 0.00 | 55 | 1021.6 |
| 20260503080133 | 66 | 311 | 4.0 | 10.0 | 0.00 | 0.00 | 0.00 | 55 | 1021.5 |
| 20260503072632 | 65 | 342 | 4.0 | 6.0 | 0.00 | 0.00 | 0.00 | 57 | 1021.4 |
| 20260503072126 | 65 | 256 | 4.0 | 8.0 | 0.00 | 0.00 | 0.00 | 57 | 1021.4 |
| 20260503071632 | 64 | 236 | 1.0 | 9.0 | 0.00 | 0.00 | 0.00 | 57 | 1021.5 |
| 20260503071126 | 64 | 232 | 5.0 | 7.0 | 0.00 | 0.00 | 0.00 | 58 | 1021.4 |
| 20260503070626 | 64 | 228 | 2.0 | 7.0 | 0.00 | 0.00 | 0.00 | 57 | 1021.4 |
| 20260503070126 | 64 | 298 | 3.0 | 8.0 | 0.00 | 0.00 | 0.00 | 58 | 1021.4 |
| 20260503060129 | 60 | 134 | 2.0 | 4.0 | 0.00 | 0.00 | 0.00 | 68 | 1021.3 |
| 20260503054626 | 59 | 161 | 4.0 | 4.0 | 0.00 | 0.00 | 0.00 | 69 | 1021.3 |
| 20260503054129 | 59 | 144 | 0.0 | 3.0 | 0.00 | 0.00 | 0.00 | 70 | 1021.2 |
| 20260503053629 | 58 | 196 | 0.0 | 2.0 | 0.00 | 0.00 | 0.00 | 71 | 1021.2 |
| 20260503053129 | 58 | 169 | 0.0 | 4.0 | 0.00 | 0.00 | 0.00 | 71 | 1021.2 |
| 20260503052626 | 57 | 173 | 0.0 | 4.0 | 0.00 | 0.00 | 0.00 | 72 | 1021.1 |
| 20260503052129 | 57 | 171 | 0.0 | 3.0 | 0.00 | 0.00 | 0.00 | 73 | 1021.1 |
| 20260503051626 | 56 | 161 | 0.0 | 6.0 | 0.00 | 0.00 | 0.00 | 73 | 1021.0 |
| 20260503051136 | 56 | 188 | 3.0 | 8.0 | 0.00 | 0.00 | 0.00 | 73 | 1021.0 |
| 20260503050626 | 56 | 155 | 3.0 | 5.0 | 0.00 | 0.00 | 0.00 | 74 | 1020.9 |
| 20260503050126 | 56 | 152 | 3.0 | 6.0 | 0.00 | 0.00 | 0.00 | 74 | 1020.9 |
| 20260503045629 | 55 | 140 | 6.0 | 7.0 | 0.00 | 0.00 | 0.00 | 74 | 1020.9 |
| 20260503045126 | 55 | 157 | 1.0 | 5.0 | 0.00 | 0.00 | 0.00 | 74 | 1020.9 |
| 20260503044629 | 55 | 171 | 4.0 | 5.0 | 0.00 | 0.00 | 0.00 | 74 | 1020.8 |
| 20260503044129 | 55 | 166 | 0.0 | 5.0 | 0.00 | 0.00 | 0.00 | 75 | 1020.8 |
| 20260503043626 | 55 | 148 | 1.0 | 6.0 | 0.00 | 0.00 | 0.00 | 75 | 1020.8 |
| 20260503043129 | 54 | 182 | 3.0 | 7.0 | 0.00 | 0.00 | 0.00 | 75 | 1020.8 |
| 20260503042626 | 54 | 173 | 4.0 | 6.0 | 0.00 | 0.00 | 0.00 | 75 | 1020.8 |
| 20260503042126 | 54 | 178 | 1.0 | 7.0 | 0.00 | 0.00 | 0.00 | 75 | 1020.7 |
| 20260503041626 | 54 | 157 | 4.0 | 7.0 | 0.00 | 0.00 | 0.00 | 75 | 1020.7 |
| 20260503041129 | 54 | 171 | 3.0 | 7.0 | 0.00 | 0.00 | 0.00 | 74 | 1020.6 |
| 20260503040629 | 54 | 171 | 1.0 | 8.0 | 0.00 | 0.00 | 0.00 | 74 | 1020.6 |
| 20260503040129 | 54 | 178 | 2.0 | 5.0 | 0.00 | 0.00 | 0.00 | 74 | 1020.6 |
| 20260503035629 | 54 | 207 | 1.0 | 5.0 | 0.00 | 0.00 | 0.00 | 74 | 1020.5 |
| 20260503035129 | 54 | 171 | 2.0 | 6.0 | 0.00 | 0.00 | 0.00 | 73 | 1020.5 |
| 20260503034629 | 54 | 186 | 3.0 | 5.0 | 0.00 | 0.00 | 0.00 | 73 | 1020.5 |
| 20260503034129 | 54 | 144 | 4.0 | 6.0 | 0.00 | 0.00 | 0.00 | 73 | 1020.4 |
| 20260503033629 | 54 | 109 | 3.0 | 6.0 | 0.00 | 0.00 | 0.00 | 74 | 1020.5 |
| 20260503033130 | 54 | 138 | 4.0 | 6.0 | 0.00 | 0.00 | 0.00 | 73 | 1020.6 |
| 20260503032626 | 54 | 194 | 1.0 | 6.0 | 0.00 | 0.00 | 0.00 | 74 | 1020.5 |
| 20260503032133 | 54 | 171 | 2.0 | 7.0 | 0.00 | 0.00 | 0.00 | 73 | 1020.6 |
| 20260503031626 | 54 | 157 | 2.0 | 8.0 | 0.00 | 0.00 | 0.00 | 73 | 1020.6 |
| 20260503031132 | 54 | 171 | 5.0 | 6.0 | 0.00 | 0.00 | 0.00 | 73 | 1020.6 |
| 20260503030629 | 54 | 157 | 2.0 | 7.0 | 0.00 | 0.00 | 0.00 | 73 | 1020.6 |
| 20260503030126 | 54 | 142 | 0.0 | 5.0 | 0.00 | 0.00 | 0.00 | 73 | 1020.6 |
| 20260503025626 | 54 | 184 | 4.0 | 5.0 | 0.00 | 0.00 | 0.00 | 73 | 1020.6 |
| 20260503025126 | 54 | 151 | 4.0 | 5.0 | 0.00 | 0.00 | 0.00 | 72 | 1020.5 |
| 20260503024626 | 55 | 174 | 3.0 | 7.0 | 0.00 | 0.00 | 0.00 | 72 | 1020.6 |
| 20260503024126 | 55 | 165 | 4.0 | 7.0 | 0.00 | 0.00 | 0.00 | 72 | 1020.5 |
| 20260503023626 | 55 | 150 | 1.0 | 7.0 | 0.00 | 0.00 | 0.00 | 72 | 1020.5 |
| 20260503023129 | 55 | 123 | 3.0 | 5.0 | 0.00 | 0.00 | 0.00 | 72 | 1020.5 |
| 20260503022626 | 55 | 186 | 3.0 | 6.0 | 0.00 | 0.00 | 0.00 | 72 | 1020.6 |
| 20260503022133 | 55 | 135 | 3.0 | 7.0 | 0.00 | 0.00 | 0.00 | 71 | 1020.6 |
| 20260503021629 | 55 | 134 | 5.0 | 7.0 | 0.00 | 0.00 | 0.00 | 72 | 1020.6 |
| 20260503021126 | 55 | 176 | 4.0 | 5.0 | 0.00 | 0.00 | 0.00 | 71 | 1020.8 |
| 20260503020635 | 55 | 178 | 3.0 | 4.0 | 0.00 | 0.00 | 0.00 | 71 | 1020.8 |
| 20260503020128 | 55 | 176 | 2.0 | 6.0 | 0.00 | 0.00 | 0.00 | 71 | 1020.8 |
| 20260503015628 | 54 | 136 | 5.0 | 6.0 | 0.00 | 0.00 | 0.00 | 71 | 1020.9 |
| 20260503015125 | 54 | 157 | 3.0 | 7.0 | 0.00 | 0.00 | 0.00 | 71 | 1020.9 |
| 20260503014634 | 54 | 157 | 5.0 | 7.0 | 0.00 | 0.00 | 0.00 | 71 | 1021.0 |
| 20260503014125 | 55 | 180 | 2.0 | 7.0 | 0.00 | 0.00 | 0.00 | 71 | 1021.0 |
| 20260503013634 | 55 | 196 | 0.0 | 7.0 | 0.00 | 0.00 | 0.00 | 71 | 1021.1 |
| 20260503013125 | 54 | 182 | 3.0 | 7.0 | 0.00 | 0.00 | 0.00 | 71 | 1021.1 |
| 20260503012625 | 54 | 129 | 2.0 | 7.0 | 0.00 | 0.00 | 0.00 | 71 | 1021.1 |
| 20260503012128 | 54 | 179 | 0.0 | 6.0 | 0.00 | 0.00 | 0.00 | 71 | 1021.1 |
| 20260503011625 | 55 | 213 | 3.0 | 6.0 | 0.00 | 0.00 | 0.00 | 71 | 1021.1 |
| 20260503011131 | 55 | 167 | 3.0 | 5.0 | 0.00 | 0.00 | 0.00 | 70 | 1021.2 |
| 20260503010628 | 55 | 198 | 2.0 | 6.0 | 0.00 | 0.00 | 0.00 | 70 | 1021.2 |
| 20260503010125 | 55 | 185 | 2.0 | 8.0 | 0.00 | 0.00 | 0.00 | 70 | 1021.2 |
| 20260503005625 | 55 | 171 | 0.0 | 5.0 | 0.00 | 0.00 | 0.00 | 70 | 1021.2 |
| 20260503005131 | 55 | 177 | 3.0 | 5.0 | 0.00 | 0.00 | 0.00 | 70 | 1021.3 |
| 20260503004628 | 55 | 185 | 5.0 | 6.0 | 0.00 | 0.00 | 0.00 | 70 | 1021.3 |
| 20260503004125 | 55 | 130 | 2.0 | 7.0 | 0.00 | 0.00 | 0.00 | 70 | 1021.3 |
| 20260503003628 | 55 | 138 | 0.0 | 5.0 | 0.00 | 0.00 | 0.00 | 70 | 1021.3 |
| 20260503003128 | 55 | 178 | 4.0 | 7.0 | 0.00 | 0.00 | 0.00 | 69 | 1021.4 |
| 20260503002631 | 55 | 154 | 5.0 | 6.0 | 0.00 | 0.00 | 0.00 | 69 | 1021.4 |
| 20260503002125 | 55 | 175 | 1.0 | 6.0 | 0.00 | 0.00 | 0.00 | 69 | 1021.4 |
| 20260503001625 | 55 | 173 | 3.0 | 5.0 | 0.00 | 0.00 | 0.00 | 69 | 1021.5 |
| 20260503001128 | 55 | 153 | 0.0 | 5.0 | 0.00 | 0.00 | 0.00 | 69 | 1021.6 |
| 20260503000628 | 55 | 197 | 6.0 | 6.0 | 0.00 | 0.00 | 0.00 | 68 | 1021.6 |
| 20260503000131 | 55 | 196 | 5.0 | 7.0 | 0.00 | 0.00 | 0.00 | 68 | 1021.7 |
| 20260502235631 | 55 | 142 | 3.0 | 5.0 | 0.00 | 0.00 | 0.00 | 68 | 1021.7 |
| 20260502235125 | 55 | 175 | 3.0 | 5.0 | 0.00 | 0.00 | 0.00 | 68 | 1021.8 |
| 20260502234628 | 55 | 150 | 3.0 | 5.0 | 0.00 | 0.00 | 0.00 | 68 | 1021.9 |
| 20260502234131 | 55 | 134 | 1.0 | 6.0 | 0.00 | 0.00 | 0.00 | 68 | 1021.9 |
| 20260502233628 | 55 | 165 | 2.0 | 6.0 | 0.00 | 0.00 | 0.00 | 68 | 1022.0 |
| 20260502233128 | 55 | 170 | 2.0 | 7.0 | 0.00 | 0.00 | 0.00 | 68 | 1022.1 |
| 20260502232625 | 55 | 153 | 5.0 | 5.0 | 0.00 | 0.00 | 0.00 | 69 | 1022.1 |
| 20260502232125 | 55 | 161 | 1.0 | 6.0 | 0.00 | 0.00 | 0.00 | 69 | 1022.2 |
| 20260502231631 | 55 | 186 | 2.0 | 6.0 | 0.00 | 0.00 | 0.00 | 69 | 1022.3 |
| 20260502231131 | 55 | 163 | 5.0 | 7.0 | 0.00 | 0.00 | 0.00 | 68 | 1022.3 |
| 20260502230631 | 55 | 145 | 0.0 | 6.0 | 0.00 | 0.00 | 0.00 | 68 | 1022.3 |
| 20260502230128 | 55 | 181 | 0.0 | 5.0 | 0.00 | 0.00 | 0.00 | 68 | 1022.4 |
| 20260502225625 | 55 | 170 | 2.0 | 4.0 | 0.00 | 0.00 | 0.00 | 68 | 1022.5 |
| 20260502225125 | 55 | 230 | 3.0 | 6.0 | 0.00 | 0.00 | 0.00 | 68 | 1022.6 |
| 20260502224628 | 55 | 183 | 3.0 | 6.0 | 0.00 | 0.00 | 0.00 | 68 | 1022.5 |
| 20260502224125 | 55 | 164 | 6.0 | 7.0 | 0.00 | 0.00 | 0.00 | 68 | 1022.6 |
| 20260502223628 | 55 | 170 | 4.0 | 6.0 | 0.00 | 0.00 | 0.00 | 68 | 1022.6 |
| 20260502223125 | 55 | 161 | 4.0 | 5.0 | 0.00 | 0.00 | 0.00 | 68 | 1022.6 |
| 20260502222631 | 55 | 172 | 3.0 | 5.0 | 0.00 | 0.00 | 0.00 | 68 | 1022.6 |
| 20260502222128 | 55 | 209 | 4.0 | 7.0 | 0.00 | 0.00 | 0.00 | 68 | 1022.6 |
| 20260502221625 | 55 | 146 | 5.0 | 6.0 | 0.00 | 0.00 | 0.00 | 68 | 1022.6 |
| 20260502221131 | 55 | 180 | 3.0 | 6.0 | 0.00 | 0.00 | 0.00 | 68 | 1022.6 |
| 20260502220628 | 55 | 141 | 6.0 | 6.0 | 0.00 | 0.00 | 0.00 | 68 | 1022.6 |
| 20260502215659 | 55 | 159 | 5.0 | 6.0 | 0.00 | 0.00 | 0.00 | 68 | 1022.5 |
| 20260502215202 | 55 | 176 | 2.0 | 5.0 | 0.00 | 0.00 | 0.00 | 68 | 1022.5 |
| 20260502214700 | 55 | 175 | 1.0 | 6.0 | 0.00 | 0.00 | 0.00 | 67 | 1022.5 |
| 20260502214200 | 56 | 171 | 6.0 | 6.0 | 0.00 | 0.00 | 0.00 | 67 | 1022.6 |
| 20260502213703 | 56 | 188 | 2.0 | 5.0 | 0.00 | 0.00 | 0.00 | 67 | 1022.5 |
| 20260502213200 | 56 | 177 | 2.0 | 6.0 | 0.00 | 0.00 | 0.00 | 67 | 1022.5 |
| 20260502212703 | 56 | 178 | 2.0 | 6.0 | 0.00 | 0.00 | 0.00 | 67 | 1022.5 |
| 20260502212206 | 56 | 160 | 0.0 | 7.0 | 0.00 | 0.00 | 0.00 | 67 | 1022.4 |
| 20260502211700 | 56 | 159 | 3.0 | 5.0 | 0.00 | 0.00 | 0.00 | 67 | 1022.4 |
| 20260502211200 | 56 | 168 | 3.0 | 6.0 | 0.00 | 0.00 | 0.00 | 67 | 1022.5 |
| 20260502210700 | 56 | 178 | 1.0 | 6.0 | 0.00 | 0.00 | 0.00 | 67 | 1022.5 |